601  
ASUS41 KBGM 180010  
RWRBGM  
 
REGIONAL WEATHER ROUNDUP  
NATIONAL WEATHER SERVICE BINGHAMTON NY  
700 PM EST FRI NOV 17 2017  
 
NOTE: "FAIR" INDICATES FEW OR NO CLOUDS BELOW 12,000 FEET WITH NO  
SIGNIFICANT WEATHER AND/OR S TO VISIBILITY
.  
 
* = STATION(S) THAT DOES NOT REPORT PRECIPITATION, SUCH AS RAIN,  
SNOW, ETC, ALSO NO THUNDER OR FOG.
 
 
NYZ009-015>018-022>025-036-037-044>046-055>057-062-180100   
..CENTRAL NEW YORK
 
 
 
CITY SKY/WX TMP DP RH WIND PRES REMARKS
 
BINGHAMTON CLEAR 30 17 58 CALM 30.06F  
CORTLAND FAIR 30 25 80 CALM 30.10F  
DANSVILLE CLOUDY 35 23 61 S7 30.08F WCI 29  
ELMIRA CLOUDY 32 25 75 E5 30.09F WCI 27  
SENECA FALLS CLEAR 32 23 69 E3 30.12F  
ITHACA CLOUDY 29 25 85 E3 30.10F  
HAMILTON CLEAR 28 21 74 CALM 30.11F  
HORNELL MOCLDY 32 25 74 SE3 30.10F  
MONTICELLO CLEAR 30 17 58 NW8 30.06S WCI 22  
PENN YAN CLOUDY 33 21 61 E7 30.08F WCI 27  
ROME PTCLDY 28 21 75 CALM 30.14F  
SIDNEY CLEAR 27 21 80 CALM 30.11F  
SYRACUSE CLOUDY 30 23 75 CALM 30.12F  

 
 
PAZ038>040-043-044-047-048-072-180100   
..NORTHEAST PENNSYLVANIA
 
 
 
CITY SKY/WX TMP DP RH WIND PRES REMARKS
 
HAZLETON CLEAR 34 18 51 CALM 30.10F  
SCRANTON CLEAR 32 18 56 CALM 30.09F  

 

 
KEY  
WCI = WIND CHILL INDEX  
VSB = VISIBILITY  
HX = HEAT INDEX  

 
 
 
CLICK HERE TO GO TO PREVIOUS BULLETINS.

The Nexlab NY Page
The Nexlab PA Page Main Text Page